This is the latest recevied weather packets stored in our database for station/object MB7UKY-10. If no packets are shown the sender has not sent any weather packets the latest 1 day(s).
| Time | Temp. | Humidity | Pressure | Rain* | Wind** | Luminosity | Snow |
|---|---|---|---|---|---|---|---|
| 1777782241 | 18.89° C | 50% | 1003.9 hPa | - | - | - | - |
| 1777781340 | 19.44° C | 50% | 1003.8 hPa | - | - | - | - |
| 1777780440 | 19.44° C | 50% | 1003.8 hPa | - | - | - | - |
| 1777779539 | 20° C | 50% | 1003.9 hPa | - | - | - | - |
| 1777778638 | 20° C | 49% | 1004 hPa | - | - | - | - |
| 1777777737 | 20.56° C | 49% | 1004.1 hPa | - | - | - | - |
| 1777776836 | 20.56° C | 49% | 1004.3 hPa | - | - | - | - |
| 1777775936 | 20.56° C | 48% | 1004.5 hPa | - | - | - | - |
| 1777775035 | 21.11° C | 48% | 1004.5 hPa | - | - | - | - |
| 1777774138 | 21.11° C | 48% | 1004.6 hPa | - | - | - | - |
| 1777773233 | 21.11° C | 48% | 1004.6 hPa | - | - | - | - |
| 1777772332 | 21.11° C | 49% | 1004.9 hPa | - | - | - | - |
| 1777771432 | 21.11° C | 49% | 1004.9 hPa | - | - | - | - |
| 1777770531 | 20.56° C | 49% | 1005 hPa | - | - | - | - |
| 1777769630 | 20.56° C | 50% | 1005.2 hPa | - | - | - | - |
| 1777768729 | 21.11° C | 49% | 1005.3 hPa | - | - | - | - |
| 1777767829 | 21.11° C | 49% | 1005.6 hPa | - | - | - | - |
| 1777766928 | 21.11° C | 49% | 1005.8 hPa | - | - | - | - |
| 1777766027 | 21.67° C | 49% | 1005.8 hPa | - | - | - | - |
| 1777765126 | 21.67° C | 49% | 1005.7 hPa | - | - | - | - |
| 1777764226 | 21.67° C | 49% | 1005.8 hPa | - | - | - | - |
| 1777763325 | 22.22° C | 48% | 1005.9 hPa | - | - | - | - |
| 1777762424 | 22.78° C | 48% | 1006.1 hPa | - | - | - | - |
| 1777761524 | 23.33° C | 47% | 1006.4 hPa | - | - | - | - |
| 1777760623 | 23.33° C | 47% | 1006.6 hPa | - | - | - | - |
* Rain since midnight (hover to see other rain measurements)
** Current wind speed in m/s (hover to see current wind gust speed)